{"data":{"norad_id":53007,"intl_designator":"2022-076X","name":"STARLINK-4215","alt_names":[],"object_type":"PAYLOAD","status":"ACTIVE","operator":null,"country":"US","launch_date":"2022-07-07","launch_site_code":"AFETR","launch_vehicle":null,"mission":null,"orbit_class":"UNKNOWN","rcs_meters":null,"size_class":null,"mass_kg":null,"dimensions":null,"purposes":["comms"],"wikipedia_slug":null,"has_3d_model":false,"image_url":null,"decayed_at":null,"tle_current":{"epoch":"2026-05-25T03:50:12.583104Z","epoch_age_seconds":57740,"freshness":"FRESH","line1":"1 53007U 22076X   26145.15986786 -.00000162  00000+0  78980-5 0  9996","line2":"2 53007  53.2160 110.8348 0001445  91.5585 268.5573 15.08842667214398","mean_motion":15.08842667,"eccentricity":0.0001445,"inclination_deg":53.216,"raan_deg":110.8348,"arg_perigee_deg":91.5585,"mean_anomaly_deg":268.5573,"bstar":7.898e-6,"rev_number":21439,"period_min":95.43738598426,"perigee_km":538.73560448581,"apogee_km":540.73486956231,"semimajor_km":6917.8722370241,"source":"CELESTRAK","updated_at":"2026-05-25T13:38:17.277828Z"}}}